カタログに戻る

NAVSTAR 77

USA 289

運用中ナビゲーションHEO
NORAD 43873·PAYLOAD·🇺🇸 United States

打ち上げ Dec 23, 2018 から Cape Canaveral Space Force Station

Loading…

次のパス (今後24時間)

TLE

最新Source: CelesTrak SupGP

元期: Sep 16, 2026, 16:44 UTC

1 43873C 18109A   26259.69756944  .00000000  00000+0  00000+0 0  2595
2 43873  55.7419  88.5769 0040237 196.2753 122.5591  2.00565538    10

AllMySatでNAVSTAR 77をリアルタイム追跡

Download on the App Store